Regional Weather Roundup
Issued by NWS

Home | Current Version | Previous Version | Graphics & Text | Print | Product List | Glossary On
Versions: 1 2 3 4 5 6 7 8 9 10 11 12 13 14 15 16 17 18 19 20 21 22 23 24 25 26 27 28 29 30 31 32 33 34 35 36 37 38 39 40 41 42 43 44 45 46 47 48 49 50
000
ASUS43 KIND 232009
RWRIN

WEATHER ROUNDUP FOR INDIANA
NATIONAL WEATHER SERVICE INDIANAPOLIS IN
400 PM EDT WED AUG 23 2017

NOTE: "FAIR" INDICATES FEW OR NO CLOUDS BELOW 12,000 FEET WITH NO
SIGNIFICANT WEATHER AND/OR OBSTRUCTIONS TO VISIBILITY.

* - STATION DOES NOT REPORT WEATHER SUCH AS PRECIPITATION OR FOG.

+ - STATION NOT QUALITY CONTROLLED BY THE NATIONAL WEATHER SERVICE.
    USE DATA WITH CAUTION...ESPECIALLY DEWPOINT AND RELATIVE
    HUMIDITY OBSERVATIONS.

INZ001>003-010>013-019-020-232100-
NORTHWEST INDIANA

CITY           SKY/WX    TMP DP  RH WIND       PRES   REMARKS
GARY /AIRPORT/ MOSUNNY   73  55  53 NE8       30.05
KNOX *+        SUNNY     73  54  49 N12       30.02S
LA PORTE +     SUNNY     72  54  52 N13       30.04S
MICHIGAN CITY+ SUNNY     72  54  53 N10       30.04S
MONTICELLO +   MOSUNNY   74  52  46 NW9       30.01F
RENSSELAER +   PTSUNNY   73  43  33 W8        30.03F
VALPARAISO     SUNNY     75  56  51 N7        30.03F

$$

LMZ046-743>745-232100-
SOUTHERN LAKE MICHIGAN

STATION/POSITION TIME  TEMP    WIND        PRES    WAVE
                       AIR SEA DIR/SP/G            HT
                 (UTC) (F)     (DEG/KT/KT) (MB)    (FT)
BURNS HARBOR     1940   70      40/ 10/ 12 1017.3F
MICHIGAN CITY    1940   67      10/ 15/ 17   N/A
5NW MICH CITY    2000   68 74   30/ 12/ 16   N/A     4

$$

INZ004-005-014>016-021>024-232100-
NORTH CENTRAL INDIANA

CITY           SKY/WX    TMP DP  RH WIND       PRES   REMARKS
ELKHART        MOSUNNY   73  52  46 NW12G23   30.01F
GOSHEN         PTSUNNY   75  51  43 NW14      30.01S
LOGANSPORT +   PTSUNNY   73  52  46 NW7       30.03F
PERU/GRISSOM   MOSUNNY   74  53  46 NW10      30.01F
ROCHESTER +    MOSUNNY   77  48  36 NW14      30.02F
SOUTH BEND     MOSUNNY   70  54  56 NW16      30.03S
WARSAW +       MOSUNNY   73  54  49 W16       30.01F

$$

INZ006>009-017-018-025>027-232100-
NORTHEAST INDIANA

CITY           SKY/WX    TMP DP  RH WIND       PRES   REMARKS
AUBURN +       MOSUNNY   73  46  38 NW8       30.00S
FORT WAYNE     PTSUNNY   74  53  48 W10       30.00F
HUNTINGTON +   MOSUNNY   74  52  44 NW7       30.00F
KENDALLVILLE + MOSUNNY   73  52  47 NW9G18    30.00F

$$

INZ028-029-035-036-043>045-051>053-232100-
WEST CENTRAL INDIANA

CITY           SKY/WX    TMP DP  RH WIND       PRES   REMARKS
GREENCASTLE +  MOSUNNY   75  46  35 N7        30.05S
LAFAYETTE      MOSUNNY   76  52  43 N10G18    30.02F
TERRE HAUTE    MOSUNNY   79  50  36 N7        30.04F

$$

INZ030>032-037>040-046>048-054>057-064-065-232100-
CENTRAL INDIANA

CITY           SKY/WX    TMP DP  RH WIND       PRES   REMARKS
ANDERSON       PTSUNNY   73  50  43 MISG      30.03
CP ATTERBURY + MOSUNNY   79  50  36 NW10      30.03F
COLUMBUS       SUNNY     75  46  35 NW7       30.02F
FRANKFORT +    CLOUDY    76  54  46 NW6       30.05F
GREENWOOD *+   MOSUNNY   78  51  38 W7        30.04S
INDIANAPOLIS   MOSUNNY   78  49  35 NW13      30.03F
-EAGLE CREEK   PTSUNNY   77  49  37 NW8       30.03F
KOKOMO +       MOSUNNY   74  53  48 NW10      30.03F
MARION +       MOSUNNY   73  55  53 W12       30.02F
MT COMFORT *+  MOSUNNY   73  52  46 NW7       30.04S
SHELBYVILLE    MOSUNNY   79  50  36 NW12      30.02F
ZIONSVILLE +   MOSUNNY   73  51  44 NW7       30.04F

$$

INZ033-034-041-042-049-050-058-059-232100-
EAST CENTRAL INDIANA

CITY           SKY/WX    TMP DP  RH WIND       PRES   REMARKS
MUNCIE         PTSUNNY   77  52  41 NW9       30.02F
RICHMOND +     PTSUNNY   73  50  43 NW9       30.03F

$$

INZ060-061-067>069-081>083-085>088-232100-
SOUTHWEST INDIANA

CITY           SKY/WX    TMP DP  RH WIND       PRES   REMARKS
EVANSVILLE     MOSUNNY   81  55  40 N8        30.03F
HUNTINGBURG +  MOSUNNY   80  56  43 VRB6      30.02F
WASHINGTON +   MOSUNNY   78  50  37 MISG      30.03F

$$

INZ062-063-066-070>080-084-089>092-232100-
SOUTH CENTRAL AND SOUTHEAST INDIANA

CITY           SKY/WX    TMP DP  RH WIND       PRES   REMARKS
BEDFORD +      MOSUNNY   77  50  38 N3        30.01F
BLOOMINGTON    PTSUNNY   80  50  34 MISG      30.03F
MADISON *+     MOSUNNY   81  52  36 W5        30.04F
NORTH VERNON + MOSUNNY   77  54  44 NW8       30.03F
SEYMOUR +      MOSUNNY   79  54  41 N8G21     30.02F

$$





USA.gov is the U.S. government's official web portal to all federal, state and local government web resources and services.